GW5694 Weather Reports


time (UTC)temp
F
wind
direction
speed
knots
gust
knots
rain 1hr
in
rain 24hr
in
rain mn
in
humidity
%
barometer
mb
20260504050403 45 116 0.0 0.0 0.00 0.00 0.00 71 1015.4
20260504045900 46 125 0.0 0.0 0.00 0.00 0.00 70 1015.1
20260504045355 46 143 0.0 0.0 0.00 0.00 0.00 68 1015.2
20260504044852 46 165 0.0 0.0 0.00 0.00 0.00 67 1015.2
20260504044350 46 138 0.0 0.0 0.00 0.00 0.00 68 1015.2
20260504043847 46 180 1.7 1.7 0.00 0.00 0.00 71 1014.9
20260504043344 46 126 0.0 0.0 0.00 0.00 0.00 69 1014.9
20260504042841 46 155 0.9 0.9 0.00 0.00 0.00 72 1015.1
20260504042337 46 116 0.0 0.0 0.00 0.00 0.00 68 1015.0
20260504041834 46 116 0.0 0.0 0.00 0.00 0.00 68 1014.9
20260504041330 46 112 0.0 0.0 0.00 0.00 0.00 67 1014.9
20260504040827 46 111 0.0 0.9 0.00 0.00 0.00 67 1015.0
20260504040325 46 112 0.0 0.9 0.00 0.00 0.00 68 1015.1
20260504035820 45 121 0.0 0.0 0.00 0.00 0.00 64 1015.1
20260504035319 45 128 0.0 0.0 0.00 0.00 0.00 63 1015.4
20260504034815 45 129 0.0 0.0 0.00 0.00 0.00 64 1015.2
20260504034313 46 130 0.0 0.0 0.00 0.00 0.00 65 1015.1
20260504033810 46 116 0.0 0.0 0.00 0.00 0.00 64 1015.2
20260504033307 45 122 0.0 0.0 0.00 0.00 0.00 61 1015.2
20260504032803 45 123 0.0 0.0 0.00 0.00 0.00 61 1014.7
20260504032301 45 123 0.0 0.0 0.00 0.00 0.00 62 1015.0
20260504031757 46 130 0.0 0.0 0.00 0.00 0.00 63 1015.1
20260504031255 46 131 0.0 0.0 0.00 0.00 0.00 63 1015.1
20260504030750 46 154 0.9 0.9 0.00 0.00 0.00 62 1015.0
20260504030248 46 133 0.0 0.0 0.00 0.00 0.00 58 1015.1
20260504025744 46 130 0.0 0.0 0.00 0.00 0.00 59 1014.9
20260504025241 46 130 0.9 1.7 0.00 0.00 0.00 60 1014.7
20260504024738 46 136 0.9 0.9 0.00 0.00 0.00 64 1014.8
20260504024234 46 155 0.9 0.9 0.00 0.00 0.00 66 1014.6
20260504023731 46 112 0.0 0.0 0.00 0.00 0.00 60 1014.8
20260504023227 46 112 0.0 0.0 0.00 0.00 0.00 60 1014.9
20260504022723 45 115 0.9 0.9 0.00 0.00 0.00 60 1014.8
20260504022220 45 117 0.0 0.0 0.00 0.00 0.00 60 1014.9
20260504021718 45 122 0.0 0.0 0.00 0.00 0.00 59 1014.7
20260504021215 45 114 0.0 0.0 0.00 0.00 0.00 58 1014.6
20260504020711 46 114 0.0 0.0 0.00 0.00 0.00 58 1014.4
20260504020207 46 113 0.0 0.0 0.00 0.00 0.00 59 1014.5
20260504015704 46 113 0.0 0.0 0.00 0.00 0.00 57 1014.6
20260504015200 47 114 0.0 0.0 0.00 0.00 0.00 54 1014.4
20260504014655 48 112 0.0 0.0 0.00 0.00 0.00 52 1014.5
20260504014153 48 116 0.0 0.0 0.00 0.00 0.00 54 1014.5
20260504013651 47 109 0.0 0.0 0.00 0.00 0.00 56 1014.4
20260504013148 48 136 0.0 0.0 0.00 0.00 0.00 55 1014.4
20260504012645 48 131 0.0 0.0 0.00 0.00 0.00 55 1014.2
20260504012143 48 129 0.0 0.0 0.00 0.00 0.00 53 1014.1
20260504011640 49 126 0.0 0.0 0.00 0.00 0.00 52 1014.1
20260504011136 49 135 0.9 0.9 0.00 0.00 0.00 51 1013.9
20260504010631 49 138 0.0 0.0 0.00 0.00 0.00 51 1013.9
20260504010128 49 94 0.9 1.7 0.00 0.00 0.00 52 1013.8
20260504005625 49 115 0.0 0.0 0.00 0.00 0.00 52 1013.8
20260504005121 50 115 0.0 0.0 0.00 0.00 0.00 51 1013.7
20260504004621 50 116 0.0 0.0 0.00 0.00 0.00 50 1014.1
20260504004117 51 123 0.9 0.9 0.00 0.00 0.00 48 1013.6
20260504003613 51 116 0.0 0.0 0.00 0.00 0.00 48 1013.7
20260504003109 52 115 0.0 0.0 0.00 0.00 0.00 46 1013.7
20260504002606 52 117 0.0 0.0 0.00 0.00 0.00 44 1013.7
20260504002104 53 115 0.0 0.0 0.00 0.00 0.00 44 1013.7
20260504001601 54 116 0.0 0.0 0.00 0.00 0.00 43 1013.8
20260504001057 56 113 0.0 0.0 0.00 0.00 0.00 38 1014.1
20260504000554 56 108 0.0 0.0 0.00 0.00 0.00 34 1013.8
20260504000052 57 103 0.0 0.0 0.00 0.00 0.00 34 1013.6
20260503235550 57 106 0.0 0.0 0.00 0.00 0.00 34 1013.6
20260503235046 58 77 0.9 0.9 0.00 0.00 0.00 35 1013.5
20260503234544 59 17 0.9 0.9 0.00 0.00 0.00 33 1013.7
20260503234043 59 100 0.9 0.9 0.00 0.00 0.00 33 1013.6
20260503233538 60 93 0.9 0.9 0.00 0.00 0.00 33 1013.5
20260503233034 60 99 0.9 0.9 0.00 0.00 0.00 34 1013.6
20260503232532 60 349 1.7 1.7 0.00 0.00 0.00 32 1013.6
20260503232029 60 124 0.9 0.9 0.00 0.00 0.00 33 1013.7
20260503231527 60 105 0.9 0.9 0.00 0.00 0.00 30 1013.4
20260503231023 60 329 1.7 1.7 0.00 0.00 0.00 31 1013.5
20260503230520 61 8 3.5 4.3 0.00 0.00 0.00 29 1013.3
20260503230018 61 351 2.6 2.6 0.00 0.00 0.00 29 1013.5
20260503225514 61 93 0.9 1.7 0.00 0.00 0.00 30 1013.4
20260503225009 61 338 3.5 4.3 0.00 0.00 0.00 29 1013.1
20260503224507 61 340 3.5 4.3 0.00 0.00 0.00 28 1013.4
20260503224005 61 342 2.6 4.3 0.00 0.00 0.00 27 1013.4
20260503223503 61 336 4.3 5.2 0.00 0.00 0.00 27 1013.5
20260503222958 62 154 0.9 0.9 0.00 0.00 0.00 31 1013.2
20260503222457 62 312 1.7 1.7 0.00 0.00 0.00 28 1013.2
20260503221955 63 109 2.6 2.6 0.00 0.00 0.00 26 1013.1
20260503221453 63 131 0.9 0.9 0.00 0.00 0.00 26 1013.3
20260503220949 63 163 0.9 1.7 0.00 0.00 0.00 24 1013.4
20260503220445 65 217 2.6 2.6 0.00 0.00 0.00 26 1013.4
20260503215942 64 229 0.9 1.7 0.00 0.00 0.00 29 1013.5
20260503215439 66 156 0.0 0.0 0.00 0.00 0.00 24 1013.3
20260503214937 64 211 0.9 0.9 0.00 0.00 0.00 25 1013.4
20260503214434 64 196 5.2 6.1 0.00 0.00 0.00 24 1013.4
20260503213931 63 110 0.9 0.9 0.00 0.00 0.00 25 1013.5
20260503213430 63 331 0.9 1.7 0.00 0.00 0.00 26 1013.5
20260503212925 63 172 1.7 1.7 0.00 0.00 0.00 25 1013.6
20260503212423 64 187 4.3 6.1 0.00 0.00 0.00 25 1013.5
20260503211920 64 163 0.9 0.9 0.00 0.00 0.00 24 1013.5
20260503211417 63 195 1.7 1.7 0.00 0.00 0.00 26 1013.8
20260503210912 62 332 4.3 6.1 0.00 0.00 0.00 30 1013.7
20260503210410 61 335 4.3 6.1 0.00 0.00 0.00 30 1013.6
20260503205904 63 302 4.3 5.2 0.00 0.00 0.00 28 1013.7
20260503205402 62 17 0.9 1.7 0.00 0.00 0.00 26 1013.7
20260503204858 62 307 2.6 4.3 0.00 0.00 0.00 28 1013.7
20260503204355 62 166 0.9 1.7 0.00 0.00 0.00 27 1013.7
20260503203852 62 197 6.1 7.8 0.00 0.00 0.00 28 1013.9
20260503203350 61 203 6.1 7.8 0.00 0.00 0.00 30 1013.9
20260503202846 61 343 1.7 1.7 0.00 0.00 0.00 30 1013.9
20260503202345 62 164 2.6 2.6 0.00 0.00 0.00 27 1014.1
20260503201843 62 337 3.5 5.2 0.00 0.00 0.00 29 1014.1
20260503201339 62 130 0.9 1.7 0.00 0.00 0.00 31 1014.3
20260503200837 62 244 2.6 2.6 0.00 0.00 0.00 33 1014.2
20260503200332 62 179 3.5 4.3 0.00 0.00 0.00 28 1014.4
20260503195830 62 111 1.7 1.7 0.00 0.00 0.00 28 1014.4
20260503195326 60 291 1.7 2.6 0.00 0.00 0.00 30 1014.5
20260503194824 60 328 2.6 2.6 0.00 0.00 0.00 31 1014.4
20260503194319 60 199 3.5 5.2 0.00 0.00 0.00 30 1014.7
20260503193816 59 246 3.5 5.2 0.00 0.00 0.00 30 1014.6
20260503193312 59 341 2.6 2.6 0.00 0.00 0.00 34 1014.7
20260503192808 59 333 4.3 6.1 0.00 0.00 0.00 32 1014.7
20260503192305 59 165 4.3 8.7 0.00 0.00 0.00 32 1014.9
20260503191800 58 323 4.3 5.2 0.00 0.00 0.00 33 1014.9
20260503191257 58 340 7.0 7.8 0.00 0.00 0.00 39 1014.8
20260503190754 59 328 7.0 8.7 0.00 0.00 0.00 32 1015.2
20260503190250 59 314 4.3 6.1 0.00 0.00 0.00 37 1015.0
20260503185748 59 323 3.5 5.2 0.00 0.00 0.00 35 1015.5
20260503185243 58 191 6.1 7.0 0.00 0.00 0.00 31 1015.5
20260503184738 58 326 6.1 7.8 0.00 0.00 0.00 36 1015.3
20260503184235 59 294 5.2 6.1 0.00 0.00 0.00 34 1015.6
20260503183731 58 348 5.2 7.0 0.00 0.00 0.00 35 1015.5
20260503183229 59 355 5.2 7.0 0.00 0.00 0.00 33 1015.7
20260503182726 58 159 0.0 0.0 0.00 0.00 0.00 34 1015.7
20260503182225 57 225 3.5 5.2 0.00 0.00 0.00 36 1015.7
20260503181721 57 38 3.5 5.2 0.00 0.00 0.00 38 1015.7
20260503181218 57 356 4.3 6.1 0.00 0.00 0.00 35 1015.8
20260503180714 58 93 0.0 0.9 0.00 0.00 0.00 36 1015.9
20260503180213 58 192 3.5 5.2 0.00 0.00 0.00 33 1015.6
20260503175710 56 224 5.2 6.1 0.00 0.00 0.00 40 1016.0
20260503175208 57 63 4.3 7.8 0.00 0.00 0.00 35 1016.0
20260503174703 57 187 1.7 2.6 0.00 0.00 0.00 34 1015.9
20260503174201 57 305 3.5 5.2 0.00 0.00 0.00 39 1015.8
20260503173656 56 265 5.2 7.0 0.00 0.00 0.00 39 1015.9
20260503173152 56 320 5.2 7.0 0.00 0.00 0.00 35 1016.1
20260503172649 55 142 0.9 0.9 0.00 0.00 0.00 37 1016.1
20260503172146 55 331 4.3 5.2 0.00 0.00 0.00 39 1016.0
20260503171642 55 232 5.2 6.1 0.00 0.00 0.00 38 1016.2
20260503171140 54 321 6.1 7.0 0.00 0.00 0.00 37 1016.2
20260503170637 54 348 2.6 4.3 0.00 0.00 0.00 37 1016.5
20260503170134 55 349 10.4 12.2 0.00 0.00 0.00 37 1016.3
20260503150525 50 341 6.1 7.0 0.00 0.00 0.00 45 1017.5
20260503131418 45 340 5.2 7.0 0.00 0.00 0.00 53 1017.5
20260503130915 45 346 7.8 8.7 0.00 0.00 0.00 53 1017.3
20260503130413 45 310 4.3 6.1 0.00 0.00 0.00 54 1017.3
20260503110817 40 313 1.7 1.7 0.00 0.00 0.00 68 1016.6
20260503110314 39 20 1.7 1.7 0.00 0.00 0.00 68 1016.5
20260503100240 41 351 3.5 5.2 0.00 0.00 0.00 65 1015.3
20260503090159 41 336 1.7 2.6 0.00 0.00 0.00 66 1015.0
20260503081636 42 358 3.5 4.3 0.00 0.00 0.00 67 1014.5
20260503081132 42 350 2.6 4.3 0.00 0.00 0.00 68 1014.6
20260503080628 42 338 4.3 5.2 0.00 0.00 0.00 67 1014.5
20260503080125 42 353 3.5 4.3 0.00 0.00 0.00 69 1014.6
20260503072602 42 339 6.1 6.1 0.00 0.00 0.00 69 1014.4
20260503072059 42 339 6.1 7.0 0.00 0.00 0.00 69 1014.2
20260503071556 42 343 5.2 6.1 0.00 0.00 0.00 68 1013.9
20260503071053 42 348 5.2 7.0 0.00 0.00 0.00 68 1014.1
20260503070549 43 321 4.3 5.2 0.00 0.00 0.00 67 1014.1
20260503055008 42 341 0.9 0.9 0.00 0.00 0.00 69 1013.9
20260503054504 42 322 3.5 4.3 0.00 0.00 0.00 69 1013.8
20260503054002 42 348 4.3 4.3 0.00 0.00 0.00 69 1013.8
20260503053500 42 341 3.5 4.3 0.00 0.00 0.00 69 1013.8
20260503052956 42 352 2.6 2.6 0.00 0.00 0.00 68 1013.9
20260503052454 42 353 2.6 2.6 0.00 0.00 0.00 67 1013.9